User: anonymous   Login
Location: Caltech
(34.1382°N, 118.1253°W)
Time: 10:25:58
(UTC-07:00)
Language:

OAO 1 Rocket - Orbit

View from above orbital plane
View from above orbital plane
View from above satellite
View from above satellite

Ground track
Ground track

The orbit data is extracted from the following two-line orbital elements,

1 02144U 66031B   15211.65442715  .00000120  00000-0  41549-4 0  9991
2 02144 035.0431 048.2886 0007601 087.9068 272.2492 14.42446523588775
Epoch (UTC): 30 July 2015 15:42:22
Eccentricity: 0.0007601
inclination: 35.0431°
perigee height: 745 km
apogee height: 756 km
right ascension of ascending node: 48.2886°
argument of perigee: 87.9068°
revolutions per day: 14.42446523
mean anomaly at epoch: 272.2492°
orbit number at epoch: 58877

The dashed part of the orbit path shows where the satellite is in the earth's shadow,  

DLR